Regional Weather Roundup
Issued by NWS

Home | Current Version | Previous Version | Text Only | Print | Product List | Glossary Off
Versions: 1 2 3 4 5 6 7 8 9 10 11 12 13 14 15 16 17 18 19 20 21 22 23 24 25 26 27 28 29 30 31 32 33 34 35 36 37 38 39 40 41 42 43 44 45 46 47 48 49 50

000
ASUS43 KMPX 160810
RWRMN
WEATHER ROUNDUP FOR MINNESOTA
NATIONAL WEATHER SERVICE TWIN CITIES/CHANHASSEN MN
200 AM CST SAT DEC 16 2017


NOTE: "FAIR" INDICATES FEW OR NO CLOUDS BELOW 12,000 FEET WITH NO
SIGNIFICANT WEATHER AND/OR OBSTRUCTIONS TO VISIBILITY. N/A MEANS
CURRENT SKY AND/OR WEATHER CONDITIONS ARE NOT AVAILABLE.

MNZ060>063-068>070-160900-
   Twin Cities Metro

CITY           SKY/WX    TMP DP  RH WIND       PRES   REMARKS
TWIN CITIES    CLOUDY    31  29  92 E9        29.65F WCI  23
ST PAUL        CLOUDY    30  27  88 SE8       29.68F WCI  22
CRYSTAL        CLOUDY    30  25  81 E7        29.65F WCI  23
BLAINE         CLOUDY    28  28 100 E7        29.66S WCI  21
LAKEVILLE        N/A     27  27 100 E3        29.65F
EDEN PRAIRIE   CLOUDY    31  28  89 E6        29.64S WCI  25
SOUTH ST PAUL  CLOUDY    31  29  92 E3        29.66F
LAKE ELMO      CLOUDY    28  28 100 NE6       29.69S WCI  22
$$
MNZ001>005-007-008-013>017-022>024-027-028-160900-
   Northwest Minnesota

CITY           SKY/WX    TMP DP  RH WIND       PRES   REMARKS
BEMIDJI        CLOUDY    15  12  90 E7        29.68R WCI   5
HALLOCK        CLOUDY    16  12  86 E14       29.70S WCI   1
ROSEAU         CLOUDY     9   3  78 E14       29.75R WCI  -8
WARROAD        LGT SNOW   7   3  85 E13       29.77R WCI  -9
THIEF RVR FALL CLOUDY    16  13  88 E13       29.69R WCI   2
CROOKSTON      CLOUDY    19  16  86 E10       29.67S WCI   8
FOSSTON        CLOUDY    18  16  93 E8        29.66R WCI   7
DETROIT LAKES  CLOUDY    23  21  93 E7        29.63R WCI  15
MOORHEAD       CLOUDY    27  25  93 CALM      29.63S
PARK RAPIDS    CLOUDY    19  15  84 E6        29.64R WCI  11
MAHNOMEN       CLOUDY    22  18  84 E10       29.63R WCI  11
$$
MNZ006-009>011-018-025>026-160900-
   North Central Minnesota

CITY           SKY/WX    TMP DP  RH WIND       PRES   REMARKS
BAUDETTE       CLOUDY     6   2  83 E13       29.76R WCI -10
FLAG ISLAND    CLOUDY     0  -6  78 E7        29.78R WCI -13
INTL FALLS     MOCLDY     3  -2  79 E8        29.80R WCI -10
WASKISH        CLOUDY     9   7  92 E9        29.74R WCI  -5
BIG FORK       FLURRIES  10   7  85 E3        29.73R
LONGVILLE      FLURRIES  16  14  93 E3        29.69R
GRAND RAPIDS   FLURRIES  12   9  87 E3        29.74R
CRANE LAKE     PTCLDY    -6  -9  84 CALM      29.83R
ORR            PTCLDY     3  -2  78 CALM      29.74R
COOK           MOCLDY     3   0  85 E5        29.76R WCI  -6
WALKER         CLOUDY    16  13  91 E7        29.68R WCI   6
$$
MNZ012-019>021-037-160900-
   Northeast Minnesota

CITY           SKY/WX    TMP DP  RH WIND       PRES   REMARKS
DULUTH         FLURRIES  15  13  91 E8        29.73R WCI   4
ELY            CLOUDY     0  -4  85 CALM      29.77S
HIBBING        FLURRIES  10   6  84 E3        29.74R
EVELETH        FLURRIES  10   3  75 NE5       29.76R WCI   1
DULUTH HARBOR  CLOUDY    19  16  86 E9        29.79S WCI   9
TWO HARBORS    CLOUDY    18  12  79 NE6       29.76R WCI   9
SILVER BAY     FLURRIES  10   7  85 N5        29.77S WCI   2
GRAND MARAIS     N/A      8  -2  63 NE8       29.89R WCI  -4
G MARAIS ARPRT CLOUDY    -2  -9  71 N6        29.77R WCI -14
$$
MNZ029>031-032-039>041-046>048-054>057-064-160900-
   West Central Minnesota

CITY           SKY/WX    TMP DP  RH WIND       PRES   REMARKS
FERGUS FALLS   CLOUDY    28  27  93 E3        29.64R
WHEATON        PTCLDY    27  25  93 E7        29.62R WCI  19
MORRIS         CLOUDY    28  27  93 SE6       29.59S WCI  22
ALEXANDRIA     CLOUDY    26  24  92 E9        29.61S WCI  17
ELBOW LAKE     FAIR      27  26  94 SE7       29.61R FOG     WCI  19
WADENA         CLOUDY    19  18  93 E7        29.64R WCI  10
GLENWOOD       CLOUDY    27  27 100 E9        29.61F FOG     WCI  17
APPLETON         N/A     32  28  86 E5        29.59S WCI  27
BENSON         CLOUDY    30  27  86 SE6       29.62R WCI  24
ORTONVILLE     PTCLDY    30  27  86 E3        29.59R
MADISON        CLOUDY    34  28  80 S3        29.60R
WILLMAR        FAIR      30  28  93 E5        29.62S WCI  25
$$
MNZ033>034-036-042>043-049>051-058-059-160900-
   Central Minnesota

CITY           SKY/WX    TMP DP  RH WIND       PRES   REMARKS
ST CLOUD       CLOUDY    22  20  92 E5        29.66R WCI  16
SAUK CENTRE    PTSUNNY   24  22  94 E8        29.63S WCI  15
PAYNESVILLE    CLOUDY    28  27  99 E6        29.63S WCI  21
AITKIN         LGT SNOW  18  14  86 E6        29.69  WCI   9
PINE RIVER     CLOUDY    18  14  86 E6        29.71R WCI   9
BRAINERD       CLOUDY    21  17  84 NE3       29.68R
STAPLES        CLOUDY    19  18  93 E6        29.65R WCI  11
LITTLE FALLS   LGT SNOW  23  18  80 CALM      29.66F
LITCHFIELD     CLOUDY    30  30 100 NE5       29.63S WCI  25
BUFFALO        CLOUDY    28  26  93 NE5       29.66R FOG     WCI  23
MAPLE LAKE     MOCLDY    28  27  97 NE6       29.66R FOG     WCI  21
HUTCHINSON     CLOUDY    31  29  94 NE5       29.63S WCI  26
$$
MNZ037-044-045-052-053-160900-
   East Central Minnesota

CITY           SKY/WX    TMP DP  RH WIND       PRES   REMARKS
PRINCETON      FLURRIES  23  21  93 NE3       29.67S
MORA           LGT SNOW  19  18  93 E5        29.70F WCI  13
CAMBRIDGE      LGT SNOW  25  19  80 NE3       29.68F
RUSH CITY      LGT SNOW  21  18  91 NE5       29.70S WCI  14
MOOSE LAKE     LGT SNOW  18  14  86 NE3       29.72S
HINCKLEY       LGT SNOW  21  19  93 NE9       29.71F WCI  11
CLOQUET        LGT SNOW  16  12  86 E5        29.73R WCI   9
MCGREGOR       MOCLDY    18  16  93 E7        29.72R WCI   8
$$
MNZ071>073-080-081-089-090-097-098-160900-
   Southwest Minnesota

CITY           SKY/WX    TMP DP  RH WIND       PRES   REMARKS
MONTEVIDEO     PTCLDY    30  27  86 CALM      29.59F
GRANITE FALLS  CLOUDY    33  29  86 SE3       29.62R
CANBY          MOCLDY    39  30  69 SW8       29.60S
MARSHALL       CLOUDY    37  28  70 W10       29.60R
REDWOOD FALLS  PTCLDY    32  29  88 E3        29.61S
OLIVIA         CLOUDY    32  30  93 E3        29.61R
PIPESTONE      PTCLDY    28  23  80 SW5       29.60S WCI  23
WINDOM           N/A     34  19  55 SW7       29.62R WCI  28
WORTHINGTON    CLOUDY    35  26  69 W13       29.61F WCI  26
JACKSON        PTCLDY    32  27  80 W6        29.61F WCI  26
SLAYTON        CLOUDY    34  28  77 W13       29.62R WCI  25
$$
MNZ065>067-074>077-082>085-091>093-160900-
   South Central Minnesota

CITY           SKY/WX    TMP DP  RH WIND       PRES   REMARKS
MANKATO        MOCLDY    32  27  81 SE7       29.63S WCI  26
NEW ULM        PTCLDY    32  27  80 CALM      29.61F
ST JAMES       CLOUDY    34  28  80 S5        29.63S WCI  30
FAIRMONT       CLOUDY    35  27  72 W8        29.63S WCI  29
GLENCOE        CLOUDY    31  31 100 CALM      29.62F
FARIBAULT      CLOUDY    30  28  93 CALM      29.65R
OWATONNA       CLOUDY    34  28  80 S5        29.65R WCI  30
WASECA         CLOUDY    32  28  86 CALM      29.65R
ALBERT LEA     PTCLDY    34  25  69 SW3       29.64R
$$
MNZ078>079-086>088-094>096-160900-
   Southeast Minnesota

CITY           SKY/WX    TMP DP  RH WIND       PRES   REMARKS
ROCHESTER      CLOUDY    31  26  82 S8        29.65R WCI  23
RED WING       CLOUDY    30  27  86 E5        29.67S WCI  25
STANTON        CLOUDY    31  28  88 E3        29.64S
DODGE CENTER   CLOUDY    30  27  86 S3        29.65R
WINONA         CLOUDY    30  30 100 SE6       29.70F WCI  24
AUSTIN         CLOUDY    30  27  86 S8        29.66R WCI  23
PRESTON        CLOUDY    32  25  77 S9        29.65F WCI  24
$$
ABBREVIATIONS USED IN REMARKS
   TC - TEMPERATURES IN CELSIUS
  WCI - WIND CHILL INDEX
   HX - HEAT INDEX
  VSB - VISIBILITY
$$




USA.gov is the U.S. government's official web portal to all federal, state and local government web resources and services.